Weather History for Idaho Falls, ID

Change the Weather History Date:

Saturday, November 3, 2012

  Actual Average Record
Temperature  
Mean Temperature 42 °F 38 °F  
Max Temperature 57 °F 50 °F 66 °F (1965)
Min Temperature 27 °F 27 °F -3 °F (1991)
Degree Days  
Heating Degree Days 23 27  
Month to date heating degree days 67 79  
Since 1 July heating degree days 830 1001  
Cooling Degree Days 0 0  
Month to date cooling degree days 0 0  
Year to date cooling degree days 444 264  
Moisture  
Dew Point 28 °F    
Average Humidity 59    
Maximum Humidity 85    
Minimum Humidity 33    
Precipitation  
Precipitation 0.00 in 0.02 in 0.39 in (1968)
Month to date precipitation 0.00 0.07  
Year to date precipitation 5.18 8.72  
Sea Level Pressure  
Sea Level Pressure 30.24 in    
Wind  
Wind Speed 5 mph (West)    
Max Wind Speed 15 mph    
Max Gust Speed 20 mph    
Visibility 10 miles    
Events      
T = Trace of Precipitation, MM = Missing Value Source: NWS Daily Summary

Daily Weather History Graph

Daily Weather History Graph

Search for Another Location

Airport:

Trip Planner

Search our weather history database for the weather conditions in past years. The results will help you decide how hot, cold, wet, or windy it might be!

Date:

Astronomy

Nov. 03, 2012 Rise Set
Actual Time 8:07 AM MDT 6:15 PM MDT
Civil Twilight 7:37 AM MDT 6:45 PM MDT
Nautical Twilight 7:03 AM MDT 7:19 PM MDT
Astronomical Twilight 6:29 AM MDT 7:53 PM MDT
Moon 9:57 PM MDT (11/3) 12:16 PM MDT (11/3)
Length of Visible Light 11h 08m
Length of Day
10h 08m
Waning Gibbous, 80% of the Moon is Illuminated
Nov 3
Waning Gibbous
Nov 6
Last Quarter
Nov 13
New
Nov 20
First Quarter
Nov 28
Full

Hourly Weather History & Observations

Time (MDT) Temp. Windchill Dew Point Humidity Pressure Visibility Wind Dir Wind Speed Gust Speed Precip Events Conditions
1:53 AM 30.0 °F 26.5 °F 26.1 °F 85% 30.19 in 10.0 mi NNW 3.5 mph - N/A   Clear
2:53 AM 30.0 °F 26.5 °F 26.1 °F 85% 30.19 in 10.0 mi North 3.5 mph - N/A   Clear
3:53 AM 30.9 °F 27.5 °F 26.1 °F 82% 30.19 in 10.0 mi North 3.5 mph - N/A   Clear
4:53 AM 28.9 °F 25.2 °F 25.0 °F 85% 30.19 in 10.0 mi NNW 3.5 mph - N/A   Clear
5:53 AM 30.0 °F 25.2 °F 25.0 °F 82% 30.22 in 10.0 mi North 4.6 mph - N/A   Clear
6:53 AM 28.9 °F - 24.1 °F 82% 30.24 in 10.0 mi Calm Calm - N/A   Clear
7:53 AM 28.9 °F 25.2 °F 25.0 °F 85% 30.26 in 10.0 mi North 3.5 mph - N/A   Scattered Clouds
8:53 AM 30.9 °F 27.5 °F 27.0 °F 85% 30.28 in 10.0 mi North 3.5 mph - N/A   Partly Cloudy
9:53 AM 36.0 °F 33.3 °F 28.9 °F 76% 30.29 in 10.0 mi North 3.5 mph - N/A   Clear
10:53 AM 41.0 °F 38.0 °F 30.9 °F 67% 30.29 in 10.0 mi North 4.6 mph - N/A   Clear
11:53 AM 46.9 °F - 32.0 °F 56% 30.29 in 10.0 mi Calm Calm - N/A   Clear
12:53 PM 51.1 °F - 28.9 °F 43% 30.27 in 10.0 mi SSW 5.8 mph - N/A   Clear
1:53 PM 54.0 °F - 28.9 °F 38% 30.24 in 10.0 mi SSW 13.8 mph - N/A   Scattered Clouds
2:53 PM 55.9 °F - 28.9 °F 36% 30.22 in 10.0 mi SSW 10.4 mph - N/A   Clear
3:53 PM 57.0 °F - 28.9 °F 34% 30.21 in 10.0 mi SW 10.4 mph - N/A   Clear
4:53 PM 55.9 °F - 30.0 °F 37% 30.22 in 10.0 mi SW 6.9 mph - N/A   Clear
5:53 PM 52.0 °F - 30.9 °F 45% 30.23 in 10.0 mi SW 5.8 mph - N/A   Clear
6:53 PM 52.0 °F - 28.9 °F 41% 30.24 in 10.0 mi Calm Calm - N/A   Clear
7:53 PM 46.9 °F - 30.0 °F 52% 30.27 in 10.0 mi SSW 5.8 mph - N/A   Clear
8:53 PM 46.9 °F - 28.9 °F 50% 30.26 in 10.0 mi SSW 4.6 mph - N/A   Clear
9:53 PM 44.1 °F 42.5 °F 30.0 °F 58% 30.27 in 10.0 mi SSW 3.5 mph - N/A   Clear
10:53 PM 41.0 °F 39.0 °F 28.9 °F 62% 30.26 in 10.0 mi SW 3.5 mph - N/A   Clear
11:53 PM 42.1 °F - 28.9 °F 60% 30.25 in 10.0 mi Calm Calm - N/A   Clear